Weather History for Winter Haven, FL

Change the Weather History Date:

Friday, August 30, 2013

  Actual Average Record
Temperature  
Mean Temperature 83 °F -  
Max Temperature 93 °F 91 °F 98 °F (1951)
Min Temperature 75 °F 72 °F 69 °F (1969)
Cooling Degree Days 18    
Growing Degree Days 33 (Base 50)    
Moisture  
Dew Point 72 °F    
Average Humidity 76    
Maximum Humidity 94    
Minimum Humidity 47    
Precipitation  
Precipitation 0.06 in - - ()
Sea Level Pressure  
Sea Level Pressure 29.97 in    
Wind  
Wind Speed 3 mph (SSE)    
Max Wind Speed 17 mph    
Max Gust Speed 23 mph    
Visibility 10 miles    
Events Rain    
Averages and records for this station are not official NWS values.
T = Trace of Precipitation, MM = Missing Value Source: NWS Daily Summary

Daily Weather History Graph

Daily Weather History Graph

Search for Another Location

Airport:

Trip Planner

Search our weather history database for the weather conditions in past years. The results will help you decide how hot, cold, wet, or windy it might be!

Date:

Astronomy

Aug. 30, 2013 Rise Set
Actual Time 7:04 AM EDT 7:49 PM EDT
Civil Twilight 6:40 AM EDT 8:13 PM EDT
Nautical Twilight 6:12 AM EDT 8:41 PM EDT
Astronomical Twilight 5:43 AM EDT 9:10 PM EDT
Moon 1:57 AM EDT (8/30) 3:49 PM EDT (8/30)
Length of Visible Light 13h 33m
Length of Day
12h 45m
Waning Crescent, 29% of the Moon is Illuminated
Aug 30
Waning Crescent
Sep 5
New
Sep 12
First Quarter
Sep 19
Full
Sep 26
Last Quarter

Hourly Weather History & Observations

Time (EDT) Temp. Heat Index Dew Point Humidity Pressure Visibility Wind Dir Wind Speed Gust Speed Precip Events Conditions
12:53 AM 79.0 °F - 72.0 °F 79% 30.01 in 10.0 mi Calm Calm - N/A   Mostly Cloudy
1:53 AM 78.1 °F - 73.0 °F 84% 30.00 in 10.0 mi Calm Calm - N/A   Mostly Cloudy
2:14 AM 78.1 °F - 73.0 °F 84% 30.00 in 10.0 mi Calm Calm - N/A   Overcast
2:31 AM 78.1 °F - 72.0 °F 81% 30.00 in 10.0 mi Calm Calm - N/A   Overcast
2:53 AM 77.0 °F - 73.0 °F 88% 29.98 in 10.0 mi SSW 3.5 mph - N/A   Scattered Clouds
3:53 AM 77.0 °F - 73.0 °F 88% 29.97 in 10.0 mi NNW 5.8 mph - N/A   Clear
4:53 AM 75.9 °F - 73.0 °F 91% 29.97 in 10.0 mi North 3.5 mph - N/A   Clear
5:53 AM 75.0 °F - 72.0 °F 90% 29.96 in 10.0 mi Calm Calm - N/A   Clear
6:53 AM 75.0 °F - 73.0 °F 94% 29.98 in 8.0 mi Calm Calm - N/A   Clear
7:53 AM 78.1 °F - 75.0 °F 90% 29.99 in 9.0 mi Calm Calm - N/A   Clear
8:53 AM 80.1 °F 85.1 °F 75.0 °F 85% 30.01 in 10.0 mi Calm Calm - N/A   Clear
9:53 AM 84.0 °F 90.2 °F 73.0 °F 69% 30.01 in 10.0 mi North 3.5 mph - N/A   Clear
10:53 AM 86.0 °F 91.5 °F 71.1 °F 61% 30.01 in 10.0 mi Calm Calm - N/A   Clear
11:53 AM 87.1 °F 92.8 °F 71.1 °F 59% 30.01 in 10.0 mi Variable 5.8 mph - N/A   Clear
12:53 PM 89.1 °F 94.1 °F 70.0 °F 53% 30.00 in 10.0 mi Variable 4.6 mph - N/A   Clear
1:53 PM 91.0 °F 95.2 °F 68.0 °F 47% 29.96 in 10.0 mi Calm Calm - N/A   Clear
2:53 PM 90.0 °F 94.5 °F 69.1 °F 50% 29.95 in 10.0 mi SE 12.7 mph - N/A   Clear
3:53 PM 90.0 °F 96.9 °F 72.0 °F 55% 29.93 in 10.0 mi WSW 6.9 mph - N/A   Partly Cloudy
4:50 PM 87.8 °F 93.8 °F 71.6 °F 58% 29.93 in 10.0 mi SW 12.7 mph 21.9 mph N/A   Overcast
4:53 PM 88.0 °F 93.8 °F 71.1 °F 57% 29.93 in 10.0 mi SW 17.3 mph 23.0 mph N/A   Overcast
5:53 PM 82.0 °F 87.9 °F 73.9 °F 76% 29.94 in 5.0 mi SSW 10.4 mph - 0.05 in Rain Light Rain
6:24 PM 80.1 °F 84.5 °F 73.9 °F 81% 29.96 in 10.0 mi East 17.3 mph - 0.00 in   Overcast
6:53 PM 77.0 °F - 72.0 °F 84% 29.93 in 10.0 mi East 3.5 mph - 0.01 in   Scattered Clouds
7:53 PM 77.0 °F - 73.0 °F 88% 29.94 in 10.0 mi NE 3.5 mph - N/A   Partly Cloudy
8:53 PM 78.1 °F - 72.0 °F 81% 29.95 in 10.0 mi SSE 8.1 mph - N/A   Scattered Clouds
9:53 PM 77.0 °F - 73.0 °F 88% 29.96 in 10.0 mi Calm Calm - N/A   Mostly Cloudy
10:53 PM 77.0 °F - 73.0 °F 88% 29.96 in 10.0 mi SSE 3.5 mph - N/A   Partly Cloudy
11:53 PM 77.0 °F - 73.0 °F 88% 29.96 in 10.0 mi Calm Calm - N/A   Clear